QPF
0.00 0.00 0.00 0.00 0.00 0.00 0.00 0.00 0.00 0.00 0.00 0.00 0.00 0.00 0.00 0.00 0.00 0.00 0.00 0.00 0.01 0.00
0.00 0.00 0.00 0.00 0.00 0.00 0.00 0.00 0.00 0.00 0.00 0.00 0.00 0.00 0.00 0.00 0.00 0.00 0.00 0.00 0.00 0.00
0.00 0.00 0.00 0.00 0.00 0.00 0.00 0.00 0.00 0.00 0.00 0.00 0.02 0.03 0.00 0.00 0.00 0.00 0.00 0.00 0.00 0.00
0.00 0.00 0.00 0.00 0.00 0.00 0.00 0.00 0.00 0.00 0.00 0.00 0.01 0.02 0.00 0.00 0.00 0.00 0.02 0.01 0.00 0.00
0.00 0.00 0.00 0.00 0.00 0.00 0.00 0.00 0.00 0.00 0.00 0.00 0.00 0.01 0.03 0.01 0.00 0.01 0.07 0.06 0.01 0.00
0.00 0.00 0.00 0.00 0.00 0.00 0.00 0.00 0.00 0.00 0.00 0.00 0.00 0.00 0.01 0.03 0.01 0.04 0.24 0.20 0.11 0.07
0.00 0.00 0.00 0.00 0.00 0.00 0.00 0.00 0.00 0.00 0.00 0.00 0.00 0.00 0.00 0.00 0.12 0.29 0.62 0.37 0.21 0.07
0.00 0.00 0.00 0.00 0.00 0.00 0.00 0.00 0.00 0.00 0.00 0.00 0.00 0.00 0.02 0.12 0.25 0.40 0.38 0.25 0.21 0.22
0.01 0.00 0.00 0.00 0.00 0.00 0.00 0.00 0.00 0.00 0.00 0.00 0.00 0.02 0.08 0.23 0.22 0.08 0.06 0.13 0.08 0.08
0.08 0.11 0.03 0.00 0.00 0.00 0.00 0.00 0.00 0.00 0.00 0.00 0.02 0.13 0.23 0.39 0.44 0.08 0.06 0.09 0.03 0.02
0.01 0.04 0.08 0.07 0.05 0.02 0.03 0.00 0.00 0.00 0.01 0.06 0.19 0.26 0.35 0.49 0.49 0.21 0.19 0.25 0.24 0.08
0.00 0.00 0.03 0.07 0.07 0.04 0.07 0.08 0.04 0.01 0.04 0.03 0.08 0.15 0.31 0.37 0.31 0.21 0.20 0.28 0.29 0.18
0.00 0.00 0.00 0.00 0.01 0.02 0.03 0.03 0.02 0.00 0.00 0.03 0.03 0.08 0.11 0.05 0.04 0.07 0.12 0.21 0.21 0.14
0.00 0.00 0.00 0.00 0.00 0.00 0.00 0.01 0.01 0.01 0.00 0.01 0.01 0.01 0.02 0.02 0.06 0.17 0.24 0.18 0.11 0.03
MSLP
1015.64 1015.99 1016.28 1016.45 1016.69 1016.63 1016.80 1016.70 1016.61 1016.86 1016.98 1017.04 1017.36 1017.65 1017.99 1018.39 1018.67 1018.80 1019.00 1019.08 1019.25 1019.05
1015.25 1015.60 1015.86 1015.99 1016.27 1016.39 1016.40 1016.40 1016.52 1016.45 1017.08 1017.16 1017.53 1017.63 1017.82 1018.35 1018.77 1019.00 1019.01 1018.92 1019.00 1019.08
1014.63 1014.86 1015.18 1015.51 1015.80 1016.02 1016.00 1016.03 1016.14 1016.43 1016.83 1017.16 1017.34 1017.33 1017.71 1018.26 1018.49 1018.59 1018.58 1018.62 1018.79 1018.99
1014.14 1014.32 1014.65 1014.96 1015.18 1015.37 1015.58 1015.70 1015.74 1016.02 1016.44 1016.72 1017.08 1017.22 1017.44 1017.83 1018.08 1018.24 1018.29 1018.26 1018.41 1018.67
1013.53 1013.81 1014.10 1014.36 1014.52 1014.71 1014.92 1015.17 1015.32 1015.70 1016.14 1016.29 1016.61 1016.98 1017.41 1017.63 1017.57 1017.78 1018.11 1018.24 1018.31 1018.39
1012.98 1013.14 1013.28 1013.52 1013.85 1014.17 1014.36 1014.64 1015.09 1015.44 1015.75 1015.97 1016.17 1016.39 1016.74 1016.84 1016.98 1017.51 1017.98 1018.14 1018.23 1018.33
1012.42 1012.45 1012.64 1013.05 1013.47 1013.71 1013.80 1014.09 1014.68 1015.09 1015.23 1015.53 1015.83 1016.08 1016.18 1016.27 1016.76 1017.67 1018.03 1018.09 1018.52 1018.53
1012.35 1012.63 1012.97 1013.09 1013.05 1013.16 1013.36 1013.30 1013.51 1014.03 1014.42 1014.87 1015.09 1015.19 1015.41 1015.64 1016.27 1016.84 1017.04 1017.11 1017.81 1017.81
1013.32 1012.28 1012.09 1012.06 1012.01 1012.19 1012.29 1012.72 1012.87 1012.94 1013.39 1013.89 1013.96 1014.01 1014.42 1014.94 1015.17 1015.34 1016.15 1016.57 1016.69 1017.12
1013.50 1013.69 1012.44 1012.13 1012.13 1012.07 1012.20 1012.12 1012.27 1012.26 1012.54 1012.97 1013.37 1013.76 1014.01 1014.02 1014.96 1015.92 1015.90 1017.44 1016.90 1017.03
1013.51 1013.98 1013.45 1012.82 1012.31 1012.53 1012.63 1012.22 1012.36 1011.96 1012.07 1012.96 1013.66 1013.49 1013.40 1014.24 1015.13 1015.60 1017.15 1017.54 1017.16 1017.29
1013.57 1013.89 1013.40 1012.84 1012.26 1012.16 1012.78 1012.72 1012.47 1012.34 1012.41 1012.81 1013.23 1012.85 1012.74 1013.16 1014.44 1014.91 1015.16 1016.38 1017.01 1016.87
1013.59 1013.60 1013.46 1012.96 1012.73 1012.57 1012.59 1012.50 1012.43 1012.24 1011.82 1011.76 1012.20 1012.12 1011.79 1011.59 1012.56 1014.05 1013.49 1015.35 1016.29 1016.51
1013.01 1012.87 1012.71 1012.87 1013.22 1012.88 1012.82 1013.03 1013.08 1012.71 1012.79 1012.62 1012.29 1012.23 1011.67 1011.30 1010.29 1010.77 1011.85 1014.98 1015.79 1016.56
Thickness
5811 5807 5804 5803 5801 5803 5802 5804 5805 5804 5803 5801 5798 5794 5790 5788 5786 5784 5781 5779 5776 5776
5813 5809 5807 5808 5806 5805 5806 5807 5806 5806 5802 5798 5793 5791 5790 5786 5782 5780 5778 5777 5773 5769
5815 5813 5811 5810 5807 5806 5808 5808 5807 5805 5803 5798 5795 5794 5792 5786 5784 5781 5780 5778 5773 5767
5815 5814 5812 5810 5812 5811 5810 5810 5809 5807 5804 5802 5798 5797 5794 5789 5786 5782 5780 5778 5774 5769
5819 5817 5814 5813 5814 5815 5812 5813 5812 5808 5803 5802 5799 5796 5790 5787 5789 5785 5779 5775 5772 5767
5820 5821 5820 5820 5819 5817 5815 5812 5809 5806 5802 5799 5797 5797 5793 5792 5790 5784 5776 5771 5770 5767
5819 5820 5819 5820 5818 5818 5820 5818 5809 5804 5803 5799 5795 5792 5791 5792 5786 5776 5772 5760 5753 5761
5820 5819 5815 5814 5816 5816 5818 5818 5818 5813 5809 5802 5799 5799 5796 5794 5788 5778 5775 5770 5762 5760
5806 5815 5818 5819 5821 5820 5819 5811 5810 5813 5811 5808 5809 5808 5802 5796 5793 5792 5779 5775 5770 5764
5801 5798 5810 5813 5813 5813 5813 5814 5807 5810 5810 5804 5802 5800 5797 5798 5787 5775 5774 5757 5764 5761
5792 5787 5794 5796 5799 5799 5800 5807 5804 5809 5808 5799 5792 5793 5793 5785 5776 5770 5750 5745 5753 5750
5784 5781 5783 5786 5788 5794 5791 5792 5797 5800 5800 5794 5789 5795 5794 5787 5773 5764 5749 5749 5745 5743
5774 5773 5771 5777 5779 5783 5784 5784 5787 5791 5795 5794 5788 5790 5794 5796 5781 5765 5771 5761 5745 5739
5766 5767 5768 5768 5766 5771 5774 5772 5772 5773 5774 5776 5777 5777 5782 5788 5794 5782 5772 5741 5740 5732